Overview Statistics Trail Chart Weather Telemetry Raw packets
 

This is the latest recevied weather packets stored in our database for station/object KF6FPU-15. If no packets are shown the sender has not sent any weather packets the latest 10 day(s).

<< 36 37 38 39 40 41 42 >>
Time Temp. Humidity Pressure Rain* Wind** Luminosity Snow
1788063782 32.22° C 18% 1011.6 hPa - - - -
1788063182 32.22° C 18% 1011.6 hPa - - - -
1788062582 31.67° C 18% 1011.5 hPa - - - -
1788061982 31.67° C 18% 1011.5 hPa - - - -
1788060182 31.67° C 18% 1010.9 hPa - - - -
1788059582 32.22° C 18% 1010.9 hPa - - - -
1788058982 32.78° C 18% 1011 hPa - - - -
1788058382 32.22° C 18% 1010.9 hPa - - - -
1788057782 32.78° C 18% 1010.8 hPa - - - -
1788057182 32.78° C 18% 1010.8 hPa - - - -
1788056582 33.89° C 18% 1010.8 hPa - - - -
1788055982 33.89° C 18% 1010.8 hPa - - - -
1788055382 33.89° C 18% 1010.8 hPa - - - -
1788054782 33.89° C 18% 1011 hPa - - - -
1788053582 34.44° C 18% 1010.9 hPa - - - -
1788052982 33.89° C 18% 1011 hPa - - - -
1788052382 34.44° C 18% 1011.1 hPa - - - -
1788051782 35° C 18% 1011.3 hPa - - - -
1788051182 35° C 18% 1011.2 hPa - - - -
1788050597 35° C 18% 1011.1 hPa - - - -
1788049982 34.44° C 18% 1010.9 hPa - - - -
1788049382 35° C 18% 1011 hPa - - - -
1788048782 35° C 17% 1011.2 hPa - - - -
1788048182 35.56° C 17% 1011.2 hPa - - - -
1788046982 36.67° C 17% 1011.2 hPa - - - -

* Rain since midnight (hover to see other rain measurements)
** Current wind speed in m/s (hover to see current wind gust speed)